Location: The Saddle
(36.8333°N, 80.3417°W)
Time: 15:49:02
(UTC-05:00)

A-11 Canister half - Pass Details

Date: 13 December 2023
Orbit: 1526 x 1682 km, 47.3° (Epoch: 01 March)

Event Time Altitude Azimuth Distance (km) Brightness Sun altitude
Rises 00:47:07 0° 300° (WNW) 4,912 - -74.7°
Reaches altitude 10° 00:50:32 10° 294° (WNW) 3,906 - -74.3°
Maximum altitude 00:59:34 41° 229° (SW) 2,216 - -73.3°
Drops below altitude 10° 01:08:20 10° 163° (SSE) 3,784 - -72.2°
Sets 01:11:37 0° 156° (SSE) 4,744 - -71.7°
